Location: Newark
(25.4800°N, 85.7200°E)
Time: 08:04:53
(UTC+00:00)

Vanguard 1 Rocket - Pass Details

Date: 22 August 2019
Orbit: 652 x 4225 km, 34.3° (Epoch: 15 September)

Event Time Altitude Azimuth Distance (km) Brightness Sun altitude
Rises 00:41:44 0° 295° (WNW) 3,597 10.0 9.9°
Reaches altitude 10° 00:43:48 10° 298° (WNW) 2,879 9.5 10.3°
Maximum altitude 00:50:50 74° 23° (NNE) 1,616 9.0 11.9°
Drops below altitude 10° 01:04:59 10° 108° (ESE) 5,475 12.8 15.1°
Sets 01:10:31 0° 110° (ESE) 7,057 13.1 16.3°
